Time,TemperatureF,DewpointF,PressureIn,WindDirection,WindDirectionDegrees,WindSpeedMPH,WindSpeedGustMPH,Humidity,HourlyPrecipIn,Conditions,Clouds,dailyrainin,SoftwareType,DateUTC
2013-01-03 00:02:00,22.0,18.0,-100.00,NW,320,10.0,17.0,82,0.00,,,0.00,,2013-01-03 00:02:00,
2013-01-03 00:12:00,22.0,18.0,-100.00,NW,315,11.0,16.0,82,0.00,,,0.00,,2013-01-03 00:12:00,
2013-01-03 00:22:00,22.0,18.0,-100.00,NW,315,12.0,20.0,82,0.00,,,0.00,,2013-01-03 00:22:00,
2013-01-03 00:37:00,22.0,18.0,-100.00,NW,315,11.0,16.0,82,0.00,,,0.00,,2013-01-03 00:37:00,
2013-01-03 00:52:00,21.0,18.0,-100.00,NW,325,7.0,12.0,83,0.00,,,0.00,,2013-01-03 00:52:00,
2013-01-03 01:02:00,21.0,16.0,-100.00,NW,320,12.0,18.0,83,0.00,,,0.00,,2013-01-03 01:02:00,
2013-01-03 01:12:00,20.0,16.0,-100.00,NW,315,12.0,16.0,83,0.00,,,0.00,,2013-01-03 01:12:00,
2013-01-03 01:22:00,19.0,14.0,-100.00,NW,320,12.0,17.0,82,0.00,,,0.00,,2013-01-03 01:22:00,
2013-01-03 01:32:00,19.0,14.0,-100.00,NW,315,14.0,17.0,82,0.00,,,0.00,,2013-01-03 01:32:00,
2013-01-03 01:42:00,18.0,14.0,-100.00,NW,310,15.0,19.0,82,0.00,,,0.00,,2013-01-03 01:42:00,
2013-01-03 01:52:00,18.0,14.0,-100.00,NW,315,13.0,17.0,82,0.00,,,0.00,,2013-01-03 01:52:00,
2013-01-03 02:02:00,18.0,14.0,-100.00,NW,325,11.0,17.0,82,0.00,,,0.00,,2013-01-03 02:02:00,
2013-01-03 02:12:00,17.0,12.0,-100.00,NW,315,13.0,16.0,83,0.00,,,0.00,,2013-01-03 02:12:00,
2013-01-03 02:22:00,16.0,12.0,-100.00,NW,320,16.0,21.0,82,0.00,,,0.00,,2013-01-03 02:22:00,
2013-01-03 02:33:00,16.0,12.0,-100.00,NW,320,16.0,21.0,82,0.00,,,0.00,,2013-01-03 02:33:00,
2013-01-03 02:42:00,16.0,12.0,-100.00,NW,320,16.0,21.0,82,0.00,,,0.00,,2013-01-03 02:42:00,
2013-01-03 02:52:00,16.0,12.0,-100.00,NW,320,16.0,21.0,82,0.00,,,0.00,,2013-01-03 02:52:00,
2013-01-03 03:02:00,15.0,10.0,-100.00,NW,320,15.0,22.0,83,0.00,,,0.00,,2013-01-03 03:02:00,
2013-01-03 03:12:00,14.0,10.0,-100.00,NW,320,16.0,23.0,83,0.00,,,0.00,,2013-01-03 03:12:00,
2013-01-03 03:22:00,14.0,10.0,-100.00,NNW,330,17.0,21.0,84,0.00,,,0.00,,2013-01-03 03:22:00,
2013-01-03 03:46:00,14.0,10.0,-100.00,NW,320,13.0,19.0,84,0.00,,,0.00,,2013-01-03 03:46:00,
2013-01-03 03:52:00,13.0,10.0,-100.00,NNW,330,14.0,19.0,85,0.00,,,0.00,,2013-01-03 03:52:00,
2013-01-03 04:02:00,13.0,10.0,-100.00,NNW,330,14.0,22.0,85,0.00,,,0.00,,2013-01-03 04:02:00,
2013-01-03 04:12:00,13.0,9.0,-100.00,NNW,330,13.0,17.0,85,0.00,,,0.00,,2013-01-03 04:12:00,
2013-01-03 04:22:00,13.0,9.0,-100.00,NNW,335,11.0,17.0,85,0.00,,,0.00,,2013-01-03 04:22:00,
2013-01-03 04:32:00,12.0,9.0,-100.00,NNW,330,11.0,17.0,85,0.00,,,0.00,,2013-01-03 04:32:00,
2013-01-03 04:42:00,12.0,9.0,-100.00,NNW,330,10.0,18.0,85,0.00,,,0.00,,2013-01-03 04:42:00,
2013-01-03 04:52:00,12.0,9.0,-100.00,NW,325,14.0,17.0,85,0.00,,,0.00,,2013-01-03 04:52:00,
2013-01-03 05:03:00,12.0,9.0,-100.00,NNW,330,9.0,17.0,85,0.00,,,0.00,,2013-01-03 05:03:00,
2013-01-03 05:12:00,12.0,9.0,-100.00,NW,325,14.0,17.0,85,0.00,,,0.00,,2013-01-03 05:12:00,
2013-01-03 05:22:00,12.0,9.0,-100.00,NW,325,12.0,16.0,85,0.00,,,0.00,,2013-01-03 05:22:00,
2013-01-03 05:33:00,12.0,9.0,-100.00,NNW,330,14.0,19.0,85,0.00,,,0.00,,2013-01-03 05:33:00,
2013-01-03 05:42:00,12.0,9.0,-100.00,NW,325,14.0,20.0,85,0.00,,,0.00,,2013-01-03 05:42:00,
2013-01-03 05:52:00,12.0,9.0,-100.00,NW,325,12.0,17.0,85,0.00,,,0.00,,2013-01-03 05:52:00,
2013-01-03 06:02:00,11.0,9.0,-100.00,NW,320,13.0,17.0,85,0.00,,,0.00,,2013-01-03 06:02:00,
2013-01-03 06:12:00,11.0,9.0,-100.00,NW,325,11.0,18.0,86,0.00,,,0.00,,2013-01-03 06:12:00,
2013-01-03 06:22:00,11.0,9.0,-100.00,NW,315,12.0,17.0,86,0.00,,,0.00,,2013-01-03 06:22:00,
2013-01-03 06:32:00,11.0,9.0,-100.00,NW,325,12.0,17.0,86,0.00,,,0.00,,2013-01-03 06:32:00,
2013-01-03 06:42:00,11.0,7.0,-100.00,NW,320,12.0,14.0,86,0.00,,,0.00,,2013-01-03 06:42:00,
2013-01-03 06:52:00,11.0,7.0,-100.00,NW,325,11.0,17.0,86,0.00,,,0.00,,2013-01-03 06:52:00,
2013-01-03 07:02:00,10.0,7.0,-100.00,NW,320,11.0,17.0,86,0.00,,,0.00,,2013-01-03 07:02:00,
2013-01-03 07:12:00,10.0,7.0,-100.00,NW,325,12.0,17.0,86,0.00,,,0.00,,2013-01-03 07:12:00,
2013-01-03 07:22:00,10.0,7.0,-100.00,NW,320,10.0,15.0,86,0.00,,,0.00,,2013-01-03 07:22:00,
2013-01-03 07:32:00,10.0,7.0,-100.00,NW,325,15.0,19.0,86,0.00,,,0.00,,2013-01-03 07:32:00,
2013-01-03 07:42:00,9.0,7.0,-100.00,NW,320,11.0,15.0,86,0.00,,,0.00,,2013-01-03 07:42:00,
2013-01-03 07:52:00,9.0,5.0,-100.00,NW,325,12.0,17.0,86,0.00,,,0.00,,2013-01-03 07:52:00,
2013-01-03 08:02:00,9.0,5.0,-100.00,NW,325,15.0,19.0,86,0.00,,,0.00,,2013-01-03 08:02:00,
2013-01-03 08:12:00,8.0,5.0,-100.00,NW,325,16.0,20.0,86,0.00,,,0.00,,2013-01-03 08:12:00,
2013-01-03 08:22:00,7.0,5.0,-100.00,NW,325,14.0,20.0,87,0.00,,,0.00,,2013-01-03 08:22:00,
2013-01-03 08:32:00,7.0,5.0,-100.00,NW,325,14.0,19.0,87,0.00,,,0.00,,2013-01-03 08:32:00,
2013-01-03 08:42:00,7.0,5.0,-100.00,NW,315,14.0,20.0,87,0.00,,,0.00,,2013-01-03 08:42:00,
2013-01-03 08:52:00,7.0,3.0,-100.00,NW,320,14.0,20.0,87,0.00,,,0.00,,2013-01-03 08:52:00,
2013-01-03 09:02:00,6.0,3.0,-100.00,NW,325,12.0,26.0,87,0.00,,,0.00,,2013-01-03 09:02:00,
2013-01-03 09:12:00,6.0,3.0,-100.00,NW,320,13.0,19.0,87,0.00,,,0.00,,2013-01-03 09:12:00,
2013-01-03 09:22:00,6.0,3.0,-100.00,NW,320,12.0,19.0,88,0.00,,,0.00,,2013-01-03 09:22:00,
2013-01-03 09:33:00,6.0,3.0,-100.00,NW,320,11.0,16.0,88,0.00,,,0.00,,2013-01-03 09:33:00,
2013-01-03 09:42:00,6.0,3.0,-100.00,NW,320,13.0,17.0,88,0.00,,,0.00,,2013-01-03 09:42:00,
2013-01-03 09:52:00,6.0,3.0,-100.00,NNW,330,12.0,17.0,88,0.00,,,0.00,,2013-01-03 09:52:00,
2013-01-03 10:02:00,6.0,3.0,-100.00,NNW,335,14.0,18.0,88,0.00,,,0.00,,2013-01-03 10:02:00,
2013-01-03 10:12:00,6.0,3.0,-100.00,NNW,330,13.0,17.0,88,0.00,,,0.00,,2013-01-03 10:12:00,
2013-01-03 10:22:00,5.0,3.0,-100.00,NW,325,14.0,18.0,88,0.00,,,0.00,,2013-01-03 10:22:00,
2013-01-03 10:32:00,5.0,3.0,-100.00,NW,325,13.0,17.0,88,0.00,,,0.00,,2013-01-03 10:32:00,
2013-01-03 10:42:00,5.0,3.0,-100.00,NNW,330,11.0,16.0,88,0.00,,,0.00,,2013-01-03 10:42:00,
2013-01-03 10:52:00,5.0,3.0,-100.00,NW,325,12.0,17.0,88,0.00,,,0.00,,2013-01-03 10:52:00,
2013-01-03 11:02:00,5.0,1.0,-100.00,NW,320,11.0,15.0,88,0.00,,,0.00,,2013-01-03 11:02:00,
2013-01-03 11:12:00,5.0,1.0,-100.00,NW,310,10.0,15.0,88,0.00,,,0.00,,2013-01-03 11:12:00,
2013-01-03 11:22:00,4.0,1.0,-100.00,NW,320,13.0,17.0,88,0.00,,,0.00,,2013-01-03 11:22:00,
2013-01-03 11:33:00,4.0,1.0,-100.00,NW,320,11.0,15.0,88,0.00,,,0.00,,2013-01-03 11:33:00,
2013-01-03 11:42:00,4.0,1.0,-100.00,NW,315,10.0,17.0,88,0.00,,,0.00,,2013-01-03 11:42:00,
2013-01-03 11:52:00,4.0,1.0,-100.00,NW,325,14.0,18.0,88,0.00,,,0.00,,2013-01-03 11:52:00,
2013-01-03 12:02:00,4.0,1.0,-100.00,NW,320,12.0,17.0,88,0.00,,,0.00,,2013-01-03 12:02:00,
2013-01-03 12:12:00,3.0,1.0,-100.00,NNW,330,11.0,16.0,88,0.00,,,0.00,,2013-01-03 12:12:00,
2013-01-03 12:22:00,3.0,0.0,-100.00,NW,325,9.0,12.0,88,0.00,,,0.00,,2013-01-03 12:22:00,
2013-01-03 12:32:00,2.0,0.0,-100.00,NNW,330,8.0,12.0,88,0.00,,,0.00,,2013-01-03 12:32:00,
2013-01-03 12:42:00,2.0,0.0,-100.00,NW,320,9.0,11.0,88,0.00,,,0.00,,2013-01-03 12:42:00,
2013-01-03 12:52:00,2.0,0.0,-100.00,NW,325,8.0,11.0,88,0.00,,,0.00,,2013-01-03 12:52:00,
2013-01-03 13:02:00,2.0,0.0,-100.00,NW,315,7.0,11.0,88,0.00,,,0.00,,2013-01-03 13:02:00,
2013-01-03 13:12:00,2.0,0.0,-100.00,NW,325,7.0,10.0,88,0.00,,,0.00,,2013-01-03 13:12:00,
2013-01-03 13:22:00,2.0,0.0,-100.00,NW,320,9.0,13.0,88,0.00,,,0.00,,2013-01-03 13:22:00,
2013-01-03 13:32:00,2.0,0.0,-100.00,NW,320,7.0,11.0,88,0.00,,,0.00,,2013-01-03 13:32:00,
2013-01-03 13:42:00,1.0,-2.0,-100.00,NW,310,6.0,9.0,88,0.00,,,0.00,,2013-01-03 13:42:00,
2013-01-03 13:52:00,1.0,-2.0,-100.00,NW,305,6.0,8.0,88,0.00,,,0.00,,2013-01-03 13:52:00,
2013-01-03 14:02:00,0.0,-2.0,-100.00,WNW,290,6.0,7.0,88,0.00,,,0.00,,2013-01-03 14:02:00,
2013-01-03 14:12:00,0.0,-2.0,-100.00,WNW,300,6.0,7.0,88,0.00,,,0.00,,2013-01-03 14:12:00,
2013-01-03 14:22:00,0.0,-2.0,-100.00,NW,305,6.0,8.0,88,0.00,,,0.00,,2013-01-03 14:22:00,
2013-01-03 14:32:00,0.0,-2.0,-100.00,NW,310,7.0,9.0,88,0.00,,,0.00,,2013-01-03 14:32:00,
2013-01-03 14:42:00,0.0,-2.0,-100.00,NW,310,6.0,9.0,88,0.00,,,0.00,,2013-01-03 14:42:00,
2013-01-03 14:53:00,0.0,-2.0,-100.00,WNW,295,6.0,7.0,88,0.00,,,0.00,,2013-01-03 14:53:00,
2013-01-03 15:03:00,0.0,-2.0,-100.00,NW,305,7.0,9.0,88,0.00,,,0.00,,2013-01-03 15:03:00,
2013-01-03 15:12:00,0.0,-2.0,-100.00,NW,305,7.0,9.0,88,0.00,,,0.00,,2013-01-03 15:12:00,
2013-01-03 15:22:00,1.0,-2.0,-100.00,WNW,295,7.0,10.0,88,0.00,,,0.00,,2013-01-03 15:22:00,
2013-01-03 15:33:00,2.0,0.0,-100.00,WNW,295,7.0,9.0,88,0.00,,,0.00,,2013-01-03 15:33:00,
2013-01-03 15:42:00,2.0,0.0,-100.00,NW,305,7.0,10.0,87,0.00,,,0.00,,2013-01-03 15:42:00,
2013-01-03 15:53:00,2.0,0.0,-100.00,WNW,300,7.0,10.0,87,0.00,,,0.00,,2013-01-03 15:53:00,
2013-01-03 16:03:00,3.0,0.0,-100.00,NW,305,7.0,10.0,86,0.00,,,0.00,,2013-01-03 16:03:00,
2013-01-03 16:12:00,4.0,1.0,-100.00,NW,320,8.0,9.0,85,0.00,,,0.00,,2013-01-03 16:12:00,
2013-01-03 16:22:00,5.0,1.0,-100.00,NW,320,9.0,12.0,85,0.00,,,0.00,,2013-01-03 16:22:00,
2013-01-03 16:33:00,6.0,1.0,-100.00,NW,315,7.0,14.0,84,0.00,,,0.00,,2013-01-03 16:33:00,
2013-01-03 16:43:00,6.0,3.0,-100.00,NNW,330,7.0,11.0,83,0.00,,,0.00,,2013-01-03 16:43:00,
2013-01-03 16:52:00,7.0,3.0,-100.00,NW,325,9.0,12.0,82,0.00,,,0.00,,2013-01-03 16:52:00,
2013-01-03 17:03:00,8.0,3.0,-100.00,NW,325,11.0,12.0,82,0.00,,,0.00,,2013-01-03 17:03:00,
2013-01-03 17:12:00,8.0,3.0,-100.00,NW,325,8.0,13.0,82,0.00,,,0.00,,2013-01-03 17:12:00,
2013-01-03 17:22:00,8.0,3.0,-100.00,WNW,295,9.0,12.0,81,0.00,,,0.00,,2013-01-03 17:22:00,
2013-01-03 17:33:00,9.0,5.0,-100.00,NW,310,7.0,14.0,81,0.00,,,0.00,,2013-01-03 17:33:00,
2013-01-03 17:42:00,8.0,3.0,-100.00,WNW,295,10.0,12.0,81,0.00,,,0.00,,2013-01-03 17:42:00,
2013-01-03 17:52:00,9.0,5.0,-100.00,NW,305,7.0,12.0,81,0.00,,,0.00,,2013-01-03 17:52:00,
2013-01-03 18:03:00,10.0,5.0,-100.00,NW,310,10.0,13.0,81,0.00,,,0.00,,2013-01-03 18:03:00,
2013-01-03 18:13:00,11.0,7.0,-100.00,NW,315,9.0,13.0,81,0.00,,,0.00,,2013-01-03 18:13:00,
2013-01-03 18:22:00,11.0,7.0,-100.00,WNW,290,6.0,11.0,80,0.00,,,0.00,,2013-01-03 18:22:00,
2013-01-03 18:33:00,12.0,7.0,-100.00,WNW,295,6.0,8.0,79,0.00,,,0.00,,2013-01-03 18:33:00,
2013-01-03 18:42:00,12.0,7.0,-100.00,NW,305,7.0,11.0,79,0.00,,,0.00,,2013-01-03 18:42:00,
2013-01-03 18:53:00,12.0,7.0,-100.00,WNW,285,9.0,12.0,79,0.00,,,0.00,,2013-01-03 18:53:00,
2013-01-03 19:03:00,13.0,7.0,-100.00,West,280,9.0,12.0,78,0.00,,,0.00,,2013-01-03 19:03:00,
2013-01-03 19:12:00,14.0,9.0,-100.00,West,260,8.0,12.0,78,0.00,,,0.00,,2013-01-03 19:12:00,
2013-01-03 19:55:00,15.0,9.0,-100.00,West,265,7.0,9.0,73,0.00,,,0.00,,2013-01-03 19:55:00,
2013-01-03 20:02:00,16.0,9.0,-100.00,West,265,10.0,12.0,73,0.00,,,0.00,,2013-01-03 20:02:00,
2013-01-03 20:12:00,15.0,9.0,-100.00,West,275,9.0,11.0,73,0.00,,,0.00,,2013-01-03 20:12:00,
2013-01-03 20:22:00,15.0,9.0,-100.00,West,260,9.0,11.0,74,0.00,,,0.00,,2013-01-03 20:22:00,
2013-01-03 20:33:00,14.0,9.0,-100.00,West,260,9.0,12.0,74,0.00,,,0.00,,2013-01-03 20:33:00,
2013-01-03 20:42:00,15.0,9.0,-100.00,West,260,9.0,12.0,75,0.00,,,0.00,,2013-01-03 20:42:00,
2013-01-03 20:53:00,14.0,9.0,-100.00,WSW,255,10.0,13.0,75,0.00,,,0.00,,2013-01-03 20:53:00,
2013-01-03 21:02:00,14.0,9.0,-100.00,West,270,11.0,12.0,76,0.00,,,0.00,,2013-01-03 21:02:00,
2013-01-03 21:12:00,14.0,9.0,-100.00,West,265,10.0,12.0,77,0.00,,,0.00,,2013-01-03 21:12:00,
2013-01-03 21:22:00,14.0,9.0,-100.00,WSW,250,10.0,12.0,77,0.00,,,0.00,,2013-01-03 21:22:00,
2013-01-03 21:35:00,14.0,9.0,-100.00,SW,235,10.0,13.0,78,0.00,,,0.00,,2013-01-03 21:35:00,
2013-01-03 21:47:00,14.0,9.0,-100.00,SW,220,11.0,13.0,79,0.00,,,0.00,,2013-01-03 21:47:00,
2013-01-03 21:52:00,14.0,9.0,-100.00,SW,235,9.0,14.0,80,0.00,,,0.00,,2013-01-03 21:52:00,
2013-01-03 22:02:00,14.0,9.0,-100.00,SW,235,9.0,11.0,81,0.00,,,0.00,,2013-01-03 22:02:00,
2013-01-03 22:12:00,14.0,9.0,-100.00,SW,230,11.0,13.0,81,0.00,,,0.00,,2013-01-03 22:12:00,
2013-01-03 22:22:00,13.0,9.0,-100.00,WSW,240,9.0,15.0,81,0.00,,,0.00,,2013-01-03 22:22:00,
2013-01-03 22:33:00,12.0,7.0,-100.00,SW,235,9.0,11.0,81,0.00,,,0.00,,2013-01-03 22:33:00,
2013-01-03 22:42:00,11.0,7.0,-100.00,SW,230,7.0,10.0,81,0.00,,,0.00,,2013-01-03 22:42:00,
2013-01-03 22:52:00,10.0,5.0,-100.00,SW,235,8.0,10.0,82,0.00,,,0.00,,2013-01-03 22:52:00,
2013-01-03 23:02:00,9.0,5.0,-100.00,SW,225,7.0,9.0,82,0.00,,,0.00,,2013-01-03 23:02:00,
2013-01-03 23:12:00,9.0,5.0,-100.00,SW,235,6.0,9.0,82,0.00,,,0.00,,2013-01-03 23:12:00,
2013-01-03 23:22:00,8.0,3.0,-100.00,SW,230,7.0,7.0,83,0.00,,,0.00,,2013-01-03 23:22:00,
2013-01-03 23:32:00,8.0,3.0,-100.00,SW,230,6.0,7.0,83,0.00,,,0.00,,2013-01-03 23:32:00,
2013-01-03 23:42:00,7.0,3.0,-100.00,SW,225,4.0,6.0,83,0.00,,,0.00,,2013-01-03 23:42:00,
2013-01-03 23:52:00,6.0,3.0,-100.00,SSW,205,2.0,6.0,84,0.00,,,0.00,,2013-01-03 23:52:00,